TOURFACTS.DK  
Stats and Facts from Tour de France.

Tour de France 2018 starts in 16 days
  Riders   Stages   Teams   Summits   Yearly  


 
Search by year

After 2017 - Stage 21:
 14824 starters.
  5132 different riders.
  639 teams.
  2232 stages.
  456 restdays.
  439589.60 km.
  5653 abandonnees.


Top 3
GC
Christopher Froome86:20:55
Rigoberto Urán86:21:49
Romain Bardet86:23:15
Climb
Warren Barguil169 pt.
Primoz Roglic80 pt.
Thomas De Gendt64 pt.
Sprint
Michael Matthews359 pt.
André Greipel234 pt.
Edvald Boasson Hagen220 pt.
Youth
Simon Yates86:27:09
Louis Meintjes86:29:15
Emanuel Buchmann86:54:16
Facts from Tour de France 2015
  |   Stages.  |   Stage winners.  |   Days in yellow  |   Average speed.  |   Route.  |   Teams.  |   All riders.  |   Rookies.  |  

  |   Withdrawls.  |   GC.  |   Polka  |   Green  |   White  |   Summits. (In tour)  |   Miscellaneous.  |  

Stage 11 on 15 - 07 - 2015
         Owning:    Christopher Froome      Christopher Froome      Peter Sagan      Dimitri Champion  

Pick a stage:  1 2 3 4 5 6 7 8 9 10 11 12 13 14 15 16 17 18 19 20 21
  PauVallée de Saint-Savin | Dist: 188.00 km.
Cat: 3Côte de LoucrupFRAThomas Voeckler
2 points
 
Cat: 4Côte de Bagnères-de-BigorreSUISteve Morabito
1 point
 
Cat: 3Côte de MauvezinERIDaniel Teklehaimanot
2 points
 
Cat: 1Col d'AspinENGDaniel Martin
10 points
 
Cat: HCol du TourmaletPOLRafal Majka
25 points
 
Cat: 3Col de CauteretsPOLRafal Majka
2 points
 

Average speed for all riders in stage:  34,793 km./hr.
    Place:Name:Team:Time:Km/h:
POLRafal MajkaRUSTinkoff Saxo05:02:01  +  00:00:00=37,349 
ENGDaniel MartinUSATeam Cannondale - Garmin05:03:01  +  00:01:00=37,226 
GEREmanuel BuchmannDEUBora-Argon 1805:03:24  +  00:01:23=37,179 
4 BELSerge PauwelsZAFMTN - Qhubeka P/B Samsung05:04:09  +  00:02:08=37,087 
5 FRAThomas VoecklerFRATeam Europcar05:05:35  +  00:03:34=36,913 
6 FRAJulien SimonFRACofidis – Solutions Crédits05:05:35  +  00:03:34=36,913 
7 NEDBauke MollemaUSATrek Factory Racing05:07:12  +  00:05:11=36,719 
8 ESPAlejandro ValverdeESPMovistar Team05:07:20  +  00:05:19=36,703 
9 KENChristopher FroomeGBRSky Procycling05:07:22  +  00:05:21=36,699 
10 ESPAlberto ContadorRUSTinkoff Saxo05:07:22  +  00:05:21=36,699 
11 COLNairo QuintanaESPMovistar Team05:07:22  +  00:05:21=36,699 
12 ESPSamuel SanchezUSABMC Racing Team05:07:22  +  00:05:21=36,699 
13 USATejay Van GarderenUSABMC Racing Team05:07:22  +  00:05:21=36,699 
14 WALGeraint ThomasGBRSky Procycling05:07:22  +  00:05:21=36,699 
15 NEDRobert GesinkNLDTeam Lotto NL - Jumbo05:07:22  +  00:05:21=36,699 
16 FRAPierre RollandFRATeam Europcar05:07:22  +  00:05:21=36,699 
17 FRATony GallopinBELLotto Soudal05:07:22  +  00:05:21=36,699 
18 SUIMathias FrankCHEIAM Cycling05:07:22  +  00:05:21=36,699 
19 ESPJonathan CastroviejoESPMovistar Team05:07:44  +  00:05:43=36,655 
20 USAAndrew TalanskyUSATeam Cannondale - Garmin05:07:54  +  00:05:53=36,635 
21 FRAWarren BarguilDEUTeam Giant Alpecin05:07:54  +  00:05:53=36,635 
22 URSTanel KangertKAZAstana Pro Team05:08:12  +  00:06:11=36,600 
23 ITAVincenzo NibaliKAZAstana Pro Team05:08:12  +  00:06:11=36,600 
24 SUISteve MorabitoFRAFDJ05:08:12  +  00:06:11=36,600 
25 NEDLaurens ten DamNLDTeam Lotto NL - Jumbo05:09:14  +  00:07:13=36,477 
26 RSAJacques Janse Van RensburgZAFMTN - Qhubeka P/B Samsung05:09:14  +  00:07:13=36,477 
27 ESPJosé Herrada LópezESPMovistar Team05:09:51  +  00:07:50=36,405 
28 AUSMichael RogersRUSTinkoff Saxo05:09:51  +  00:07:50=36,405 
29 AUSRichie PorteGBRSky Procycling05:11:15  +  00:09:14=36,241 
30 FRARomain BardetFRAAg2r La Mondiale05:15:51  +  00:13:50=35,713 
31 ARGEduardo SepulvedaFRABretagne - Séché Environnement05:15:51  +  00:13:50=35,713 
32 ERIMerhawi GhebremedhinZAFMTN - Qhubeka P/B Samsung05:15:51  +  00:13:50=35,713 
33 COLWinner AnaconaESPMovistar Team05:15:51  +  00:13:50=35,713 
34 COLJarlinson Pantano GomezCHEIAM Cycling05:15:51  +  00:13:50=35,713 
35 NEDSteven KruijswijkNLDTeam Lotto NL - Jumbo05:17:12  +  00:15:11=35,561 
36 NEDStef ClementCHEIAM Cycling05:17:55  +  00:15:54=35,481 
37 FRASylvain ChavanelCHEIAM Cycling05:17:55  +  00:15:54=35,481 
38 FRAMickaël CherelFRAAg2r La Mondiale05:17:55  +  00:15:54=35,481 
39 ESPHaimar ZubeldiaUSATrek Factory Racing05:17:55  +  00:15:54=35,481 
40 CZERoman KreuzigerRUSTinkoff Saxo05:17:55  +  00:15:54=35,481 
41 POLBartosz HuzarskiDEUBora-Argon 1805:17:55  +  00:15:54=35,481 
42 CZEJan BártaDEUBora-Argon 1805:17:55  +  00:15:54=35,481 
43 ESPAlberto LosadaRUSTeam Katusha05:17:55  +  00:15:54=35,481 
44 ESPJoaquim RodriguezRUSTeam Katusha05:17:55  +  00:15:54=35,481 
45 FRAAlexis VuillermozFRAAg2r La Mondiale05:17:55  +  00:15:54=35,481 
46 SUIJakob FuglsangKAZAstana Pro Team05:17:55  +  00:15:54=35,481 
47 DENLars BakBELLotto Soudal05:17:55  +  00:15:54=35,481 
48 NEDBram TankinkNLDTeam Lotto NL - Jumbo05:17:55  +  00:15:54=35,481 
49 SUIMarcel WyssCHEIAM Cycling05:17:55  +  00:15:54=35,481 
50 NEDWilco KeldermanNLDTeam Lotto NL - Jumbo05:17:55  +  00:15:54=35,481 
51 PORNelson OliveiraITALampre-Merida05:17:55  +  00:15:54=35,481 
52 COLRigoberto UránBELEtixx - Quick Step05:17:55  +  00:15:54=35,481 
53 RSALouis MeintjesZAFMTN - Qhubeka P/B Samsung05:17:55  +  00:15:54=35,481 
54 FRANicolas RocheGBRSky Procycling05:17:55  +  00:15:54=35,481 
55 FRAAngelo TulikFRATeam Europcar05:18:07  +  00:16:06=35,459 
56 ITAGiampaolo CarusoRUSTeam Katusha05:18:22  +  00:16:21=35,431 
57 ENGAdam YatesAUSOrica - GreenEDGE05:18:34  +  00:16:33=35,409 
58 CZELeopold KönigGBRSky Procycling05:19:48  +  00:17:47=35,272 
59 ESPRubén PlazaITALampre-Merida05:23:45  +  00:21:44=34,842 
60 ESPRafael Valls FerriITALampre-Merida05:23:45  +  00:21:44=34,842 
61 ITADamiano CarusoUSABMC Racing Team05:23:45  +  00:21:44=34,842 
62 SUIMichael SchärUSABMC Racing Team05:23:45  +  00:21:44=34,842 
63 BELSep VanmarckeNLDTeam Lotto NL - Jumbo05:23:45  +  00:21:44=34,842 
64 AUTGeorg PreidlerDEUTeam Giant Alpecin05:23:45  +  00:21:44=34,842 
65 AUSNathan HaasUSATeam Cannondale - Garmin05:23:45  +  00:21:44=34,842 
66 NEDKoen De KortDEUTeam Giant Alpecin05:23:45  +  00:21:44=34,842 
67 PORTiago PintoRUSTeam Katusha05:23:45  +  00:21:44=34,842 
68 CANRyder HesjedalUSATeam Cannondale - Garmin05:23:45  +  00:21:44=34,842 
69 ESPMarkel IrizarUSATrek Factory Racing05:23:45  +  00:21:44=34,842 
70 FRAFrédéric BrunFRABretagne - Séché Environnement05:23:45  +  00:21:44=34,842 
71 GERPaul VossDEUBora-Argon 1805:23:45  +  00:21:44=34,842 
72 FRAAnthony DelaplaceFRABretagne - Séché Environnement05:23:45  +  00:21:44=34,842 
73 ESPLuis Angel MateFRACofidis – Solutions Crédits05:23:45  +  00:21:44=34,842 
74 SUIReto HollensteinCHEIAM Cycling05:23:45  +  00:21:44=34,842 
75 ESPDaniel NavarroFRACofidis – Solutions Crédits05:23:45  +  00:21:44=34,842 
76 UKRAndriy GrivkoKAZAstana Pro Team05:23:45  +  00:21:44=34,842 
77 SUIMartin ElmigerCHEIAM Cycling05:23:45  +  00:21:44=34,842 
78 ITAMatteo BonoITALampre-Merida05:23:45  +  00:21:44=34,842 
79 SUIDanilo WyssUSABMC Racing Team05:23:45  +  00:21:44=34,842 
80 HRVKristijan DurasekITALampre-Merida05:23:45  +  00:21:44=34,842 
81 BELGreg Van AvermaetUSABMC Racing Team05:23:45  +  00:21:44=34,842 
82 FRAMatthieu LadagnousFRAFDJ05:23:45  +  00:21:44=34,842 
83 ERIDaniel TeklehaimanotZAFMTN - Qhubeka P/B Samsung05:23:45  +  00:21:44=34,842 
84 FRAJean-Christophe PeraudFRAAg2r La Mondiale05:23:45  +  00:21:44=34,842 
85 FRAArnaud DémareFRAFDJ05:23:45  +  00:21:44=34,842 
86 FRACyril GautierFRATeam Europcar05:23:45  +  00:21:44=34,842 
87 FRAThibaut PinotFRAFDJ05:23:45  +  00:21:44=34,842 
88 FRAJérôme CoppelCHEIAM Cycling05:23:45  +  00:21:44=34,842 
89 FRAPerrig QuemeneurFRATeam Europcar05:23:45  +  00:21:44=34,842 
90 FRAChristophe RiblonFRAAg2r La Mondiale05:23:45  +  00:21:44=34,842 
91 BELJan BakelantsFRAAg2r La Mondiale05:23:45  +  00:21:44=34,842 
92 ESPGorka Izaguirre InsaustiESPMovistar Team05:23:45  +  00:21:44=34,842 
93 IOMPeter KennaughGBRSky Procycling05:23:45  +  00:21:44=34,842 
94 GERSimon GeschkeDEUTeam Giant Alpecin05:23:45  +  00:21:44=34,842 
95 NEDWout PoelsGBRSky Procycling05:23:45  +  00:21:44=34,842 
96 BELTim WellensBELLotto Soudal05:23:45  +  00:21:44=34,842 
97 ENGStephen CummingsZAFMTN - Qhubeka P/B Samsung05:23:45  +  00:21:44=34,842 
98 FRARomain SicardFRATeam Europcar05:23:45  +  00:21:44=34,842 
99 ITAMatteo TosattoRUSTinkoff Saxo05:26:41  +  00:24:40=34,529 
100 SVKPeter SaganRUSTinkoff Saxo05:26:41  +  00:24:40=34,529 
101 AUSRohan DennisUSABMC Racing Team05:26:41  +  00:24:40=34,529 
102 LUXBob JungelsUSATrek Factory Racing05:26:41  +  00:24:40=34,529 
103 BELStijn DevolderUSATrek Factory Racing05:26:41  +  00:24:40=34,529 
104 GERPaul MartensNLDTeam Lotto NL - Jumbo05:26:41  +  00:24:40=34,529 
105 BELJens DebusschereBELLotto Soudal05:26:41  +  00:24:40=34,529 
106 ITADaniel OssUSABMC Racing Team05:26:41  +  00:24:40=34,529 
107 NEDAlbert TimmerDEUTeam Giant Alpecin05:26:41  +  00:24:40=34,529 
108 AUSMichael MatthewsAUSOrica - GreenEDGE05:28:49  +  00:26:48=34,305 
109 FRAAlexandre GeniezFRAFDJ05:28:49  +  00:26:48=34,305 
110 FRAPierrick FédrigoFRABretagne - Séché Environnement05:28:57  +  00:26:56=34,291 
111 DENMichael ValgrenRUSTinkoff Saxo05:28:58  +  00:26:57=34,289 
112 FRAArnaud GérardFRABretagne - Séché Environnement05:29:50  +  00:27:49=34,199 
113 KAZDmitriy GruzdevKAZAstana Pro Team05:30:13  +  00:28:12=34,159 
114 ITAMichele ScarponiKAZAstana Pro Team05:30:13  +  00:28:12=34,159 
115 ITAFilippo PozzatoITALampre-Merida05:33:22  +  00:31:21=33,837 
116 BELJulien VermoteBELEtixx - Quick Step05:33:22  +  00:31:21=33,837 
117 CZEZdenek StybarBELEtixx - Quick Step05:33:22  +  00:31:21=33,837 
118 FRAGeoffrey SoupeFRACofidis – Solutions Crédits05:33:22  +  00:31:21=33,837 
119 ITAManuel QuinziatoUSABMC Racing Team05:33:22  +  00:31:21=33,837 
120 AUSAdam HansenBELLotto Soudal05:33:22  +  00:31:21=33,837 
121 NEDLieuwe WestraKAZAstana Pro Team05:33:22  +  00:31:21=33,837 
122 PORJosé João PimentaDEUBora-Argon 1805:33:22  +  00:31:21=33,837 
123 RSAReinardt Janse Van RensburgZAFMTN - Qhubeka P/B Samsung05:33:22  +  00:31:21=33,837 
124 FRANicolas EdetFRACofidis – Solutions Crédits05:33:22  +  00:31:21=33,837 
125 ESPImanol ErvitiESPMovistar Team05:33:22  +  00:31:21=33,837 
126 FRAPierre-Luc PérichonFRABretagne - Séché Environnement05:33:22  +  00:31:21=33,837 
127 ITAAdriano MaloriESPMovistar Team05:33:22  +  00:31:21=33,837 
128 SUIGregory RastUSATrek Factory Racing05:33:22  +  00:31:21=33,837 
129 BELThomas De GendtBELLotto Soudal05:33:22  +  00:31:21=33,837 
130 NEDRoy CurversDEUTeam Giant Alpecin05:33:22  +  00:31:21=33,837 
131 POLMichal GolasBELEtixx - Quick Step05:33:22  +  00:31:21=33,837 
132 FRAFlorian VachonFRABretagne - Séché Environnement05:33:22  +  00:31:21=33,837 
133 COLJosé SerpaITALampre-Merida05:33:22  +  00:31:21=33,837 
134 NOREdvald Boasson HagenZAFMTN - Qhubeka P/B Samsung05:33:22  +  00:31:21=33,837 
135 WALLuke RoweGBRSky Procycling05:33:22  +  00:31:21=33,837 
136 AUTMarco HallerRUSTeam Katusha05:33:22  +  00:31:21=33,837 
137 NEDPieter WeeningAUSOrica - GreenEDGE05:33:22  +  00:31:21=33,837 
138 CANSvein TuftAUSOrica - GreenEDGE05:33:22  +  00:31:21=33,837 
139 FRABrice FeilluFRABretagne - Séché Environnement05:34:35  +  00:32:34=33,714 
140 FRAArmindo FonsecaFRABretagne - Séché Environnement05:34:35  +  00:32:34=33,714 
141 GERJohn DegenkolbDEUTeam Giant Alpecin05:34:35  +  00:32:34=33,714 
142 NEDRamon SinkeldamDEUTeam Giant Alpecin05:34:35  +  00:32:34=33,714 
143 SLOKristjan KorenUSATeam Cannondale - Garmin05:34:35  +  00:32:34=33,714 
144 NEDJos Van EmdenNLDTeam Lotto NL - Jumbo05:34:35  +  00:32:34=33,714 
145 FRAFlorian SénéchalFRACofidis – Solutions Crédits05:34:35  +  00:32:34=33,714 
146 POLMichal KwiatkowskiBELEtixx - Quick Step05:34:35  +  00:32:34=33,714 
147 GERAndré GreipelBELLotto Soudal05:34:35  +  00:32:34=33,714 
148 AUTMatthias BrändleCHEIAM Cycling05:34:35  +  00:32:34=33,714 
149 USATyler FarrarZAFMTN - Qhubeka P/B Samsung05:34:35  +  00:32:34=33,714 
150 GERMarcel SiebergBELLotto Soudal05:34:35  +  00:32:34=33,714 
151 AUSLuke DurbridgeAUSOrica - GreenEDGE05:34:35  +  00:32:34=33,714 
152 COLJulián ArredondoUSATrek Factory Racing05:34:35  +  00:32:34=33,714 
153 FRAYohann GèneFRATeam Europcar05:34:35  +  00:32:34=33,714 
154 ITAJacopo GuarnieriRUSTeam Katusha05:34:35  +  00:32:34=33,714 
155 IOMMark CavendishBELEtixx - Quick Step05:34:35  +  00:32:34=33,714 
156 BELKenneth VanbilsenFRACofidis – Solutions Crédits05:34:35  +  00:32:34=33,714 
157 AUSMark RenshawBELEtixx - Quick Step05:34:35  +  00:32:34=33,714 
158 BELSam BennettDEUBora-Argon 1805:34:35  +  00:32:34=33,714 
159 FRABryan NauleauFRATeam Europcar05:34:35  +  00:32:34=33,714 
160 FRADamien GaudinFRAAg2r La Mondiale05:34:35  +  00:32:34=33,714 
161 FRABryan CoquardFRATeam Europcar05:34:35  +  00:32:34=33,714 
162 FRAChristophe LaporteFRACofidis – Solutions Crédits05:34:35  +  00:32:34=33,714 
163 LUXLaurent DidierUSATrek Factory Racing05:34:35  +  00:32:34=33,714 
164 NEDDylan Van BaarleUSATeam Cannondale - Garmin05:34:35  +  00:32:34=33,714 
165 NEDSebastian LangeveldUSATeam Cannondale - Garmin05:34:35  +  00:32:34=33,714 
166 NORAlexander KristoffRUSTeam Katusha05:34:35  +  00:32:34=33,714 
167 ENGSimon YatesAUSOrica - GreenEDGE05:34:35  +  00:32:34=33,714 
168 ITADavide CimolaiITALampre-Merida05:34:35  +  00:32:34=33,714 
169 FRABenoit VaugrenardFRAFDJ05:34:35  +  00:32:34=33,714 
170 ENGIan StannardGBRSky Procycling05:34:35  +  00:32:34=33,714 
171 FRAJérémy RoyFRAFDJ05:34:35  +  00:32:34=33,714 
172 ITAMatteo TrentinBELEtixx - Quick Step05:34:35  +  00:32:34=33,714 
173 URSRamunas NavardauskasUSATeam Cannondale - Garmin05:34:35  +  00:32:34=33,714 
174 NEDTom LeezerNLDTeam Lotto NL - Jumbo05:34:35  +  00:32:34=33,714 
175 ENGAlex DowsettESPMovistar Team05:35:56  +  00:33:55=33,578 
176 FRASébastien ChavanelFRAFDJ05:37:16  +  00:35:15=33,445 
177 AUSZakkari DempsterDEUBora-Argon 1805:47:48  +  00:45:47=32,432 

Withdrawls: 6
 
Rider
Team
Reason
8  URSRein TaaramäeKAZAstana Pro TeamDid not finish
15  LUXBen GastauerFRAAg2r La MondialeDid not finish
18  BELJohan VansummerenFRAAg2r La MondialeDid not finish
43  ITADaniele BennatiRUSTinkoff SaxoDid not finish
151  PORRui CostaITALampre-MeridaDid not finish
197  GERDominik NerzDEUBora-Argon 18Did not finish

Todays birthdays.

1887  Charles Ponson
1913  Raymond Lemarie
1928  Jacques Dupont
1951  Francesco Moser
1959  Laurent Biondi
1975  Bert Grabsch
1987  Sacha Modolo




Visits: